sat.trackr.live / text

‹ back to catalog

COSMOS 2592

NORAD 65268 · 2025-182B

PAYLOAD ACTIVE UNKNOWN

§ Identity

Operator
Country
CIS
Launch date
2025-08-21
Launch site
PLMSC
Launch vehicle
Mass (kg)
RCS (m²)

External: N2YO · Heavens-Above · Gunter

§ Orbital elements

Epoch: 2026-05-25T02:49:16.111776Z

Period
90.20 min
Inclination
96.5902°
Eccentricity
0.0003157
Mean motion
15.96418727 rev/d
Perigee alt
282.3 km
Apogee alt
286.5 km
Semi-major
6,662.5 km
B*
9.8242e-5
RAAN
76.7237°
Arg perigee
187.8128°
Mean anomaly
172.3102°
Rev number
4,401

§ Raw data

COSMOS 25921 65268U 25182B   26145.11754759  .00040264  24759-5  98242-4 0  99992 65268  96.5902  76.7237 0003157 187.8128 172.3102 15.96418727 44018

JSON: /api/v1/satellites/65268 · /tle

For live sub-satellite position, see the globe view (requires WebGL).

§ Visibility from observer

Set your observer location to see the next 7 days of passes ≥ 10°. The values pass through the URL so the page stays shareable.

No JS? Fill the form by hand. The geolocation button needs JavaScript.